FW5818 Weather Reports


Display with metric or nautical units.
time (UTC)temp
F
wind
direction
speed
MPH
gust
MPH
rain 1hr
in
rain 24hr
in
rain mn
in
humidity
%
barometer
mb
20260508213044 75 0 1.0 7.0 0.00 0.00 0.00 50 1010.8
20260508211549 75 36 1.0 6.0 0.00 0.00 0.00 50 1011.1
20260508210048 74 180 0.0 7.0 0.00 0.00 0.00 53 1011.2
20260508204548 74 207 0.0 7.0 0.00 0.00 0.00 57 1011.4
20260508203044 74 213 3.0 9.0 0.00 0.00 0.00 52 1011.7
20260508201547 74 144 2.0 7.0 0.00 0.00 0.00 54 1011.7
20260508200051 74 190 1.0 6.0 0.00 0.00 0.00 58 1012.1
20260508194544 73 141 1.0 7.0 0.00 0.00 0.00 54 1012.6
20260508193058 73 113 2.0 9.0 0.00 0.00 0.00 55 1012.7
20260508191547 73 108 1.0 9.0 0.00 0.00 0.00 54 1012.9
20260508190046 73 0 1.0 5.0 0.00 0.00 0.00 56 1013.1
20260508184543 73 156 0.0 6.0 0.00 0.00 0.00 58 1013.3
20260508183103 73 0 1.0 6.0 0.00 0.00 0.00 56 1013.3
20260508181604 73 136 0.0 5.0 0.00 0.00 0.00 57 1013.6
20260508180048 73 143 1.0 8.0 0.00 0.00 0.00 59 1013.8
20260508174549 72 139 0.0 9.0 0.00 0.00 0.00 59 1014.1
20260508173103 70 0 1.0 6.0 0.00 0.00 0.00 60 1014.3
20260508171552 70 202 1.0 5.0 0.00 0.00 0.00 61 1014.6
20260508170048 70 178 1.0 7.0 0.00 0.00 0.00 61 1014.9
20260508164546 68 151 1.0 7.0 0.00 0.00 0.00 64 1015.3
20260508163048 67 157 0.0 5.0 0.00 0.00 0.00 70 1015.7
20260508161549 66 142 1.0 6.0 0.00 0.00 0.00 69 1016.0
20260508160044 66 161 2.0 6.0 0.00 0.00 0.00 71 1016.1
20260508154547 65 223 1.0 5.0 0.00 0.00 0.00 71 1016.3
20260508153048 65 116 1.0 6.0 0.00 0.00 0.00 73 1016.4
20260508151548 64 149 1.0 7.0 0.00 0.00 0.00 76 1016.6
20260508144558 61 0 0.0 3.0 0.00 0.00 0.00 79 1016.6
20260508143051 60 0 1.0 3.0 0.00 0.00 0.00 82 1016.5
20260508141557 59 192 1.0 6.0 0.00 0.00 0.00 84 1016.7
20260508140056 56 205 1.0 4.0 0.00 0.00 0.00 91 1017.0
20260508134548 55 0 0.0 2.0 0.00 0.00 0.00 96 1016.8
20260508133045 54 0 0.0 1.0 0.00 0.00 0.00 96 1016.6
20260508131544 53 74 0.0 2.0 0.00 0.00 0.00 96 1016.7
20260508130047 51 0 0.0 0.0 0.00 0.00 0.00 96 1017.2
20260508124543 50 0 0.0 0.0 0.00 0.00 0.00 96 1016.8
20260508123044 48 0 0.0 0.0 0.00 0.00 0.00 96 1017.0
20260508121552 48 0 0.0 0.0 0.00 0.00 0.00 96 1017.2
20260508120048 47 0 0.0 0.0 0.00 0.00 0.00 95 1017.0
20260508114546 46 0 0.0 0.0 0.00 0.00 0.00 95 1016.8
20260508113110 46 0 0.0 0.0 0.00 0.00 0.00 94 1016.7
20260508111544 46 0 0.0 0.0 0.00 0.00 0.00 94 1016.7
20260508110047 46 0 0.0 0.0 0.00 0.00 0.00 93 1016.4
20260508104554 46 0 0.0 0.0 0.00 0.00 0.00 94 1016.4
20260508103101 46 0 0.0 0.0 0.00 0.00 0.00 93 1016.4
20260508101548 47 0 0.0 0.0 0.00 0.00 0.00 94 1016.2
20260508100044 47 0 0.0 0.0 0.00 0.00 0.00 94 1016.2
20260508094540 47 0 0.0 0.0 0.00 0.00 0.00 93 1016.5
20260508093044 47 0 0.0 0.0 0.00 0.00 0.00 93 1016.7
20260508091549 47 0 0.0 0.0 0.00 0.00 0.00 93 1016.6
20260508090050 47 0 0.0 0.0 0.00 0.00 0.00 93 1016.6
20260508084545 47 0 0.0 0.0 0.00 0.00 0.00 92 1016.5
20260508083044 48 0 0.0 0.0 0.00 0.00 0.00 92 1016.4
20260508081544 48 0 0.0 0.0 0.00 0.00 0.00 92 1016.5
20260508080044 48 0 0.0 0.0 0.00 0.00 0.00 92 1016.4
20260508074543 49 0 0.0 0.0 0.00 0.00 0.00 92 1016.5
20260508073052 49 0 0.0 0.0 0.00 0.00 0.00 92 1016.6
20260508071552 49 0 0.0 0.0 0.00 0.00 0.00 92 1016.6
20260508070051 50 0 0.0 0.0 0.00 0.00 0.00 92 1016.6
20260508064602 50 0 0.0 0.0 0.00 0.00 0.00 92 1016.7
20260508063047 51 0 0.0 0.0 0.00 0.00 0.00 92 1016.8
20260508061553 51 0 0.0 0.0 0.00 0.00 0.00 91 1017.0
20260508060051 51 0 0.0 0.0 0.00 0.00 0.00 91 1017.0
20260508054617 52 0 0.0 0.0 0.00 0.00 0.00 91 1017.0
20260508053044 52 0 0.0 0.0 0.00 0.00 0.00 91 1017.0
20260508051545 52 0 0.0 0.0 0.00 0.00 0.00 91 1017.0
20260508050052 53 0 0.0 0.0 0.00 0.00 0.00 91 1017.1
20260508044545 53 0 0.0 0.0 0.00 0.00 0.00 90 1017.2
20260508043050 53 0 0.0 0.0 0.00 0.00 0.00 90 1017.0
20260508041543 54 0 0.0 0.0 0.00 0.00 0.00 90 1017.0
20260508040057 54 0 0.0 0.0 0.00 0.00 0.00 89 1017.0
20260508034550 54 0 0.0 0.0 0.00 0.00 0.00 90 1017.0
20260508033041 55 0 0.0 0.0 0.00 0.00 0.00 89 1017.0
20260508031552 55 0 0.0 1.0 0.00 0.00 0.00 89 1016.9
20260508030055 55 0 0.0 0.0 0.00 0.00 0.00 89 1016.8
20260508024548 55 0 0.0 0.0 0.00 0.00 0.00 89 1016.8
20260508023046 56 0 0.0 0.0 0.00 0.00 0.00 88 1016.7
20260508021545 57 0 0.0 0.0 0.00 0.00 0.00 88 1016.5
20260508020051 57 0 0.0 0.0 0.00 0.00 0.00 87 1016.5
20260508014547 58 0 0.0 0.0 0.00 0.00 0.00 85 1016.2
20260508013046 59 0 0.0 0.0 0.00 0.00 0.00 84 1016.1
20260508011551 60 0 0.0 0.0 0.00 0.00 0.00 85 1016.0
20260508010051 61 0 0.0 0.0 0.00 0.00 0.00 83 1015.9
20260508004550 62 0 0.0 0.0 0.00 0.00 0.00 82 1015.8
20260508003045 62 0 0.0 0.0 0.00 0.00 0.00 81 1015.8
20260508001546 63 0 0.0 0.0 0.00 0.00 0.00 78 1015.7
20260508000107 64 0 0.0 0.0 0.00 0.00 0.00 76 1015.6
20260507234548 65 0 0.0 0.0 0.00 0.00 0.00 75 1015.7
20260507233045 66 0 0.0 1.0 0.00 0.00 0.00 72 1015.8
20260507231546 68 0 0.0 1.0 0.00 0.00 0.00 69 1016.0
20260507230049 68 0 0.0 1.0 0.00 0.00 0.00 67 1015.9
20260507224551 70 0 0.0 2.0 0.00 0.00 0.00 61 1015.8
20260507223052 70 0 0.0 6.0 0.00 0.00 0.00 52 1015.8
20260507221550 70 0 1.0 3.0 0.00 0.00 0.00 53 1015.9
20260507220052 69 24 2.0 4.0 0.00 0.00 0.00 53 1015.9
20260507214548 71 0 0.0 4.0 0.00 0.00 0.00 56 1016.0